Time,TemperatureF,DewpointF,PressureIn,WindDirection,WindDirectionDegrees,WindSpeedMPH,WindSpeedGustMPH,Humidity,HourlyPrecipIn,Conditions,Clouds,dailyrainin,SolarRadiationWatts/m^2,SoftwareType,DateUTC
2013-08-06 00:01:00,90.0,45.0,-100.00,SSW,210,4.0,9.0,21,0.00,,,0.00,0.000000,,2013-08-06 07:01:00,
2013-08-06 00:11:00,90.0,45.0,-100.00,SSW,210,4.0,9.0,21,0.00,,,0.00,0.000000,,2013-08-06 07:11:00,
2013-08-06 00:22:00,90.0,45.0,-100.00,SSW,210,4.0,9.0,21,0.00,,,0.00,0.000000,,2013-08-06 07:22:00,
2013-08-06 00:53:00,90.0,43.0,-100.00,SSW,206,0.0,7.0,20,0.00,,,-99.99,0.000000,,2013-08-06 07:53:00,
2013-08-06 01:01:00,90.0,43.0,-100.00,SSW,206,0.0,7.0,20,0.00,,,-99.99,0.000000,,2013-08-06 08:01:00,
2013-08-06 01:11:00,90.0,43.0,-100.00,SSW,206,0.0,7.0,20,0.00,,,-99.99,0.000000,,2013-08-06 08:11:00,
2013-08-06 01:21:00,90.0,43.0,-100.00,SSW,206,0.0,7.0,20,0.00,,,-99.99,0.000000,,2013-08-06 08:21:00,
2013-08-06 01:52:00,87.0,42.0,-100.00,SSE,166,0.0,5.0,21,0.00,,,0.00,0.000000,,2013-08-06 08:52:00,
2013-08-06 02:01:00,87.0,42.0,-100.00,SSE,166,0.0,5.0,21,0.00,,,0.00,0.000000,,2013-08-06 09:01:00,
2013-08-06 02:11:00,87.0,42.0,-100.00,SSE,166,0.0,5.0,21,0.00,,,0.00,0.000000,,2013-08-06 09:11:00,
2013-08-06 02:22:00,87.0,42.0,-100.00,SSE,166,0.0,5.0,21,0.00,,,0.00,0.000000,,2013-08-06 09:22:00,
2013-08-06 02:52:00,89.0,55.0,-100.00,SW,218,7.0,13.0,32,0.00,,,0.00,0.000000,,2013-08-06 09:52:00,
2013-08-06 03:01:00,89.0,55.0,-100.00,SW,218,7.0,13.0,32,0.00,,,0.00,0.000000,,2013-08-06 10:01:00,
2013-08-06 03:11:00,89.0,55.0,-100.00,SW,218,7.0,13.0,32,0.00,,,0.00,0.000000,,2013-08-06 10:11:00,
2013-08-06 03:22:00,89.0,55.0,-100.00,SW,218,7.0,13.0,32,0.00,,,0.00,0.000000,,2013-08-06 10:22:00,
2013-08-06 03:53:00,86.0,59.0,-100.00,SW,222,10.0,15.0,40,0.00,,,0.00,0.000000,,2013-08-06 10:53:00,
2013-08-06 04:01:00,86.0,59.0,-100.00,SW,222,10.0,15.0,40,0.00,,,0.00,0.000000,,2013-08-06 11:01:00,
2013-08-06 04:11:00,86.0,59.0,-100.00,SW,222,10.0,15.0,40,0.00,,,0.00,0.000000,,2013-08-06 11:11:00,
2013-08-06 04:21:00,86.0,59.0,-100.00,SW,222,10.0,15.0,40,0.00,,,0.00,0.000000,,2013-08-06 11:21:00,
2013-08-06 04:53:00,85.0,61.0,-100.00,SW,218,5.0,14.0,45,0.00,,,0.00,0.000000,,2013-08-06 11:53:00,
2013-08-06 05:01:00,85.0,61.0,-100.00,SW,218,5.0,14.0,45,0.00,,,0.00,0.000000,,2013-08-06 12:01:00,
2013-08-06 05:11:00,85.0,61.0,-100.00,SW,218,5.0,14.0,45,0.00,,,0.00,0.000000,,2013-08-06 12:11:00,
2013-08-06 05:21:00,85.0,61.0,-100.00,SW,218,5.0,14.0,45,0.00,,,0.00,0.000000,,2013-08-06 12:21:00,
2013-08-06 06:01:00,86.0,66.0,-100.00,SW,228,8.0,13.0,52,0.00,,,0.00,0.000000,,2013-08-06 13:01:00,
2013-08-06 06:11:00,86.0,66.0,-100.00,SW,228,8.0,13.0,52,0.00,,,0.00,0.000000,,2013-08-06 13:11:00,
2013-08-06 06:22:00,86.0,66.0,-100.00,SW,228,8.0,13.0,52,0.00,,,0.00,0.000000,,2013-08-06 13:22:00,
2013-08-06 07:01:00,84.0,66.0,-100.00,WSW,240,8.0,12.0,55,0.00,,,0.00,7.000000,,2013-08-06 14:01:00,
2013-08-06 07:11:00,84.0,66.0,-100.00,WSW,240,8.0,12.0,55,0.00,,,0.00,7.000000,,2013-08-06 14:11:00,
2013-08-06 07:21:00,84.0,66.0,-100.00,WSW,240,8.0,12.0,55,0.00,,,0.00,7.000000,,2013-08-06 14:21:00,
2013-08-06 07:53:00,84.0,67.0,-100.00,SE,138,1.0,10.0,56,0.00,,,0.00,84.000000,,2013-08-06 14:53:00,
2013-08-06 08:02:00,84.0,67.0,-100.00,SE,138,1.0,10.0,56,0.00,,,0.00,84.000000,,2013-08-06 15:02:00,
2013-08-06 08:11:00,84.0,67.0,-100.00,SE,138,1.0,10.0,56,0.00,,,0.00,84.000000,,2013-08-06 15:11:00,
2013-08-06 08:22:00,84.0,67.0,-100.00,SE,138,1.0,10.0,56,0.00,,,0.00,84.000000,,2013-08-06 15:22:00,
2013-08-06 08:52:00,88.0,69.0,-100.00,ESE,118,2.0,6.0,53,0.00,,,0.00,192.000000,,2013-08-06 15:52:00,
2013-08-06 09:01:00,88.0,69.0,-100.00,ESE,118,2.0,6.0,53,0.00,,,0.00,192.000000,,2013-08-06 16:01:00,
2013-08-06 09:11:00,88.0,69.0,-100.00,ESE,118,2.0,6.0,53,0.00,,,0.00,192.000000,,2013-08-06 16:11:00,
2013-08-06 09:22:00,88.0,69.0,-100.00,ESE,118,2.0,6.0,53,0.00,,,0.00,192.000000,,2013-08-06 16:22:00,
2013-08-06 09:52:00,92.0,60.0,-100.00,East,89,4.0,7.0,35,0.00,,,0.00,458.000000,,2013-08-06 16:52:00,
2013-08-06 10:02:00,92.0,60.0,-100.00,East,89,4.0,7.0,35,0.00,,,0.00,458.000000,,2013-08-06 17:02:00,
2013-08-06 10:11:00,92.0,60.0,-100.00,East,89,4.0,7.0,35,0.00,,,0.00,458.000000,,2013-08-06 17:11:00,
2013-08-06 10:21:00,92.0,60.0,-100.00,East,89,4.0,7.0,35,0.00,,,0.00,458.000000,,2013-08-06 17:21:00,
2013-08-06 11:01:00,98.0,57.0,-100.00,SSE,152,6.0,11.0,26,0.00,,,0.00,871.000000,,2013-08-06 18:01:00,
2013-08-06 11:11:00,98.0,57.0,-100.00,SSE,152,6.0,11.0,26,0.00,,,0.00,871.000000,,2013-08-06 18:11:00,
2013-08-06 11:21:00,98.0,57.0,-100.00,SSE,152,6.0,11.0,26,0.00,,,0.00,871.000000,,2013-08-06 18:21:00,
2013-08-06 11:52:00,99.0,60.0,-100.00,South,175,7.0,16.0,28,0.00,,,0.00,1024.000000,,2013-08-06 18:52:00,
2013-08-06 12:01:00,99.0,60.0,-100.00,South,175,7.0,16.0,28,0.00,,,0.00,1024.000000,,2013-08-06 19:01:00,
2013-08-06 12:11:00,99.0,60.0,-100.00,South,175,7.0,16.0,28,0.00,,,0.00,1024.000000,,2013-08-06 19:11:00,
2013-08-06 12:21:00,99.0,60.0,-100.00,South,175,7.0,16.0,28,0.00,,,0.00,1024.000000,,2013-08-06 19:21:00,
2013-08-06 12:52:00,100.0,60.0,-100.00,South,185,5.0,17.0,27,0.00,,,0.00,1133.000000,,2013-08-06 19:52:00,
2013-08-06 13:01:00,100.0,60.0,-100.00,South,185,5.0,17.0,27,0.00,,,0.00,1133.000000,,2013-08-06 20:01:00,
2013-08-06 13:11:00,100.0,60.0,-100.00,South,185,5.0,17.0,27,0.00,,,0.00,1133.000000,,2013-08-06 20:11:00,
2013-08-06 13:22:00,100.0,60.0,-100.00,South,185,5.0,17.0,27,0.00,,,0.00,1133.000000,,2013-08-06 20:22:00,
2013-08-06 13:52:00,101.0,59.0,-100.00,SSW,201,9.0,18.0,25,0.00,,,0.00,1172.000000,,2013-08-06 20:52:00,
2013-08-06 14:01:00,101.0,59.0,-100.00,SSW,201,9.0,18.0,25,0.00,,,0.00,1172.000000,,2013-08-06 21:01:00,
2013-08-06 14:11:00,101.0,59.0,-100.00,SSW,201,9.0,18.0,25,0.00,,,0.00,1172.000000,,2013-08-06 21:11:00,
2013-08-06 14:22:00,101.0,59.0,-100.00,SSW,201,9.0,18.0,25,0.00,,,0.00,1172.000000,,2013-08-06 21:22:00,
2013-08-06 14:52:00,101.0,59.0,-100.00,SSW,208,11.0,21.0,25,0.00,,,0.00,1019.000000,,2013-08-06 21:52:00,
2013-08-06 15:01:00,101.0,59.0,-100.00,SSW,208,11.0,21.0,25,0.00,,,0.00,1019.000000,,2013-08-06 22:01:00,
2013-08-06 15:11:00,101.0,59.0,-100.00,SSW,208,11.0,21.0,25,0.00,,,0.00,1019.000000,,2013-08-06 22:11:00,
2013-08-06 15:21:00,101.0,59.0,-100.00,SSW,208,11.0,21.0,25,0.00,,,0.00,1019.000000,,2013-08-06 22:21:00,
2013-08-06 15:53:00,103.0,59.0,-100.00,SSW,210,10.0,24.0,24,0.00,,,0.00,983.000000,,2013-08-06 22:53:00,
2013-08-06 16:01:00,103.0,59.0,-100.00,SSW,210,10.0,24.0,24,0.00,,,0.00,983.000000,,2013-08-06 23:01:00,
2013-08-06 16:11:00,103.0,59.0,-100.00,SSW,210,10.0,24.0,24,0.00,,,0.00,983.000000,,2013-08-06 23:11:00,
2013-08-06 16:22:00,103.0,59.0,-100.00,SSW,210,10.0,24.0,24,0.00,,,0.00,983.000000,,2013-08-06 23:22:00,
2013-08-06 16:52:00,104.0,59.0,-100.00,South,187,8.0,19.0,23,0.00,,,0.00,808.000000,,2013-08-06 23:52:00,
2013-08-06 17:01:00,104.0,59.0,-100.00,South,187,8.0,19.0,23,0.00,,,0.00,808.000000,,2013-08-07 00:01:00,
2013-08-06 17:11:00,104.0,59.0,-100.00,South,187,8.0,19.0,23,0.00,,,0.00,808.000000,,2013-08-07 00:11:00,
2013-08-06 17:21:00,104.0,59.0,-100.00,South,187,8.0,19.0,23,0.00,,,0.00,808.000000,,2013-08-07 00:21:00,
2013-08-06 17:52:00,102.0,56.0,-100.00,SSW,197,8.0,22.0,22,0.00,,,0.00,430.000000,,2013-08-07 00:52:00,
2013-08-06 18:01:00,102.0,56.0,-100.00,SSW,197,8.0,22.0,22,0.00,,,0.00,430.000000,,2013-08-07 01:01:00,
2013-08-06 18:11:00,102.0,56.0,-100.00,SSW,197,8.0,22.0,22,0.00,,,0.00,430.000000,,2013-08-07 01:11:00,
2013-08-06 18:21:00,102.0,56.0,-100.00,SSW,197,8.0,22.0,22,0.00,,,0.00,430.000000,,2013-08-07 01:21:00,
2013-08-06 18:52:00,102.0,57.0,-100.00,SSW,203,9.0,16.0,23,0.00,,,0.00,58.000000,,2013-08-07 01:52:00,
2013-08-06 19:02:00,102.0,57.0,-100.00,SSW,203,9.0,16.0,23,0.00,,,0.00,58.000000,,2013-08-07 02:02:00,
2013-08-06 19:11:00,102.0,57.0,-100.00,SSW,203,9.0,16.0,23,0.00,,,0.00,58.000000,,2013-08-07 02:11:00,
2013-08-06 19:22:00,102.0,57.0,-100.00,SSW,203,9.0,16.0,23,0.00,,,0.00,58.000000,,2013-08-07 02:22:00,
2013-08-06 19:53:00,99.0,58.0,-100.00,SSW,210,11.0,17.0,26,0.00,,,0.00,44.000000,,2013-08-07 02:53:00,
2013-08-06 20:01:00,99.0,58.0,-100.00,SSW,210,11.0,17.0,26,0.00,,,0.00,44.000000,,2013-08-07 03:01:00,
2013-08-06 20:11:00,99.0,58.0,-100.00,SSW,210,11.0,17.0,26,0.00,,,0.00,44.000000,,2013-08-07 03:11:00,
2013-08-06 20:22:00,99.0,58.0,-100.00,SSW,210,11.0,17.0,26,0.00,,,0.00,44.000000,,2013-08-07 03:22:00,
2013-08-06 20:52:00,96.0,59.0,-100.00,SW,216,12.0,19.0,29,0.00,,,0.00,1.000000,,2013-08-07 03:52:00,
2013-08-06 21:01:00,96.0,59.0,-100.00,SW,216,12.0,19.0,29,0.00,,,0.00,1.000000,,2013-08-07 04:01:00,
2013-08-06 21:11:00,96.0,59.0,-100.00,SW,216,12.0,19.0,29,0.00,,,0.00,1.000000,,2013-08-07 04:11:00,
2013-08-06 21:21:00,96.0,59.0,-100.00,SW,216,12.0,19.0,29,0.00,,,0.00,1.000000,,2013-08-07 04:21:00,
2013-08-06 21:52:00,92.0,59.0,-100.00,SW,219,13.0,20.0,33,0.00,,,0.00,0.000000,,2013-08-07 04:52:00,
2013-08-06 22:02:00,92.0,59.0,-100.00,SW,219,13.0,20.0,33,0.00,,,0.00,0.000000,,2013-08-07 05:02:00,
2013-08-06 22:11:00,92.0,59.0,-100.00,SW,219,13.0,20.0,33,0.00,,,0.00,0.000000,,2013-08-07 05:11:00,
2013-08-06 22:22:00,92.0,59.0,-100.00,SW,219,13.0,20.0,33,0.00,,,0.00,0.000000,,2013-08-07 05:22:00,
2013-08-06 22:52:00,90.0,59.0,-100.00,SSW,212,9.0,18.0,36,0.00,,,0.00,0.000000,,2013-08-07 05:52:00,
2013-08-06 23:02:00,90.0,59.0,-100.00,SSW,212,9.0,18.0,36,0.00,,,0.00,0.000000,,2013-08-07 06:02:00,
2013-08-06 23:11:00,90.0,59.0,-100.00,SSW,212,9.0,18.0,36,0.00,,,0.00,0.000000,,2013-08-07 06:11:00,
2013-08-06 23:22:00,90.0,59.0,-100.00,SSW,212,9.0,18.0,36,0.00,,,0.00,0.000000,,2013-08-07 06:22:00,
2013-08-06 23:52:00,89.0,58.0,-100.00,SW,216,10.0,16.0,35,0.00,,,0.00,0.000000,,2013-08-07 06:52:00,